Voltar ao catálogo

COSMOS 1275 DEB

AtivoPO
NORAD 39947·DEBRIS·🇷🇺 Russia

Lançado Jun 4, 1981 de Plesetsk Cosmodrome

Loading…

Próximas Passagens (próximas 24 horas)

TLE

AtualizadoSource: Space-Track

Época: Sep 13, 2026, 00:22 UTC

1 39947U 81053NH  26256.01537723  .00000633  00000-0  68444-3 0  9999
2 39947  83.0083 267.9374 0116247 356.3220  34.7434 13.68886825610160

Acompanhe COSMOS 1275 DEB em tempo real com AllMySat

Download on the App Store